,,,PA_Meas_PMT16A,,PR_Meas_QMR101_102,,RH_Meas_QMH101,,SR_Meas_QMS101,,TA_Meas_QMH101,,GenWind,,GenWind,
date,time,status,PA,status,PR,status,RH,status,SR,status,TA,status,DirAvg,status,SpdAvg,
2011-02-28, 14:13:04,INVALID - VALUE NOT AVAILABLE,0,VALID,0,VALID,80.9882,VALID,376.005,VALID,29.2795,INVALID,360,INVALID,0,
2011-02-28, 14:14:04,VALID,1000.96,VALID,0,VALID,78.3715,VALID,373.591,VALID,29.2773,VALID,113,VALID,1.87031,
2011-02-28, 14:15:04,VALID,1000.92,VALID,0,VALID,76.7542,VALID,370.273,VALID,29.26,VALID,124,VALID,1.73594,
2011-02-28, 14:16:04,VALID,1000.95,VALID,0,VALID,77.8909,VALID,365.949,VALID,29.2578,VALID,96,VALID,1.77227,
2011-02-28, 14:18:04,VALID,1000.93,VALID,0,VALID,77.7078,VALID,355.691,VALID,29.2188,VALID,114,VALID,1.77109,
2011-02-28, 14:19:04,VALID,1000.87,VALID,0,VALID,78.2113,VALID,352.976,VALID,29.2795,VALID,143,VALID,1.78047,
2011-02-28, 14:20:04,VALID,1000.87,VALID,0,VALID,78.1503,VALID,352.473,VALID,29.3575,VALID,100,VALID,1.33984,
2011-02-28, 14:21:04,VALID,1000.85,VALID,0,VALID,78.9589,VALID,352.775,VALID,29.3358,VALID,94,VALID,1.21758,
2011-02-28, 14:22:04,VALID,1000.84,VALID,0,VALID,78.3639,VALID,354.686,VALID,29.3943,VALID,142,VALID,1.20547,
2011-02-28, 14:23:04,VALID,1000.83,VALID,0,VALID,76.8381,VALID,358.306,VALID,29.3965,VALID,155,VALID,2.2207,
2011-02-28, 14:24:04,VALID,1000.83,VALID,0,VALID,77.456,VALID,358.708,VALID,29.3358,VALID,122,VALID,1.36914,
2011-02-28, 14:25:04,VALID,1000.83,VALID,0,VALID,78.8369,VALID,361.926,VALID,29.3748,VALID,86,VALID,1.04922,
2011-02-28, 14:26:04,VALID,1000.84,VALID,0,VALID,77.5399,VALID,363.736,VALID,29.4333,VALID,104,VALID,1.54219,
2011-02-28, 14:27:04,VALID,1000.84,VALID,0,VALID,76.2659,VALID,364.943,VALID,29.4138,VALID,112,VALID,1.94844,
2011-02-28, 14:28:04,VALID,1000.82,VALID,0,VALID,78.2189,VALID,365.747,VALID,29.3943,VALID,110,VALID,0.758984,
2011-02-28, 14:29:04,VALID,1000.79,VALID,0,VALID,77.4713,VALID,366.954,VALID,29.4333,VALID,71,VALID,1.53203,
2011-02-28, 14:30:04,VALID,1000.79,VALID,0,VALID,77.5399,VALID,368.463,VALID,29.47,VALID,97,VALID,0.889844,
2011-02-28, 14:31:04,VALID,1000.78,VALID,0,VALID,76.2812,VALID,376.809,VALID,29.5893,VALID,109,VALID,1.69336,
2011-02-28, 14:32:04,VALID,1000.73,VALID,0,VALID,76.7694,VALID,387.871,VALID,29.5135,VALID,144,VALID,2.86211,
2011-02-28, 14:33:04,VALID,1000.68,VALID,0,VALID,75.6937,VALID,406.274,VALID,29.5113,VALID,122,VALID,2.3418,
2011-02-28, 14:34:04,VALID,1000.68,VALID,0,VALID,75.7853,VALID,411.604,VALID,29.4138,VALID,105,VALID,2.14883,
2011-02-28, 14:35:04,VALID,1000.65,VALID,0,VALID,75.0987,VALID,414.923,VALID,29.299,VALID,109,VALID,2.97227,
2011-02-28, 14:36:04,VALID,1000.62,VALID,0,VALID,76.655,VALID,445.293,VALID,29.2795,VALID,113,VALID,2.29023,
2011-02-28, 14:37:04,VALID,1000.58,VALID,0,VALID,76.8305,VALID,428.901,VALID,29.221,VALID,118,VALID,2.97813,
2011-02-28, 14:38:04,VALID,1000.56,VALID,0,VALID,77.9672,VALID,424.376,VALID,29.2383,VALID,105,VALID,1.43984,
2011-02-28, 14:39:04,VALID,1000.57,VALID,0,VALID,76.4948,VALID,419.146,VALID,29.3575,VALID,93,VALID,2.00469,
2011-02-28, 14:40:04,VALID,1000.53,VALID,0,VALID,75.2284,VALID,412.107,VALID,29.4333,VALID,103,VALID,1.13398,
2011-02-28, 14:41:04,VALID,1000.49,VALID,0,VALID,75.7243,VALID,403.056,VALID,29.4918,VALID,144,VALID,1.42813,
2011-02-28, 14:42:04,VALID,1000.53,VALID,0,VALID,74.7401,VALID,392.397,VALID,29.6283,VALID,107,VALID,1.53945,
2011-02-28, 14:43:04,VALID,1000.5,VALID,0,VALID,76.4872,VALID,381.938,VALID,29.6478,VALID,95,VALID,1.3375,
2011-02-28, 14:44:04,VALID,1000.5,VALID,0,VALID,74.3968,VALID,374.698,VALID,29.5698,VALID,109,VALID,2.01797,
2011-02-28, 14:45:04,VALID,1000.49,VALID,0,VALID,72.5507,VALID,373.29,VALID,29.4895,VALID,114,VALID,1.74258,
2011-02-28, 14:46:04,VALID,1000.46,VALID,0,VALID,73.8781,VALID,379.726,VALID,29.4138,VALID,113,VALID,2.2875,
2011-02-28, 14:47:04,VALID,1000.49,VALID,0,VALID,76.1896,VALID,366.753,VALID,29.3943,VALID,113,VALID,2.23867,
2011-02-28, 14:48:04,VALID,1000.43,VALID,0,VALID,74.9995,VALID,346.942,VALID,29.3358,VALID,136,VALID,3.26094,
2011-02-28, 14:49:04,VALID,1000.39,VALID,0,VALID,75.1902,VALID,335.076,VALID,29.2773,VALID,78,VALID,2.16914,
2011-02-28, 14:50:04,VALID,1000.37,VALID,0,VALID,75.6175,VALID,327.936,VALID,29.2795,VALID,60,VALID,1.66641,
2011-02-28, 14:51:04,VALID,1000.34,VALID,0,VALID,74.9614,VALID,322.706,VALID,29.2361,VALID,88,VALID,0.869531,
2011-02-28, 14:52:04,VALID,1000.34,VALID,0,VALID,77.0059,VALID,321.299,VALID,29.3358,VALID,109,VALID,1.19062,
2011-02-28, 14:53:04,VALID,1000.32,VALID,0,VALID,74.2366,VALID,341.109,VALID,29.2945,VALID,127,VALID,3.71563,
2011-02-28, 14:54:04,VALID,1000.31,VALID,0,VALID,74.1985,VALID,359.613,VALID,29.3358,VALID,118,VALID,3.1582,
2011-02-28, 14:55:04,VALID,1000.31,VALID,0,VALID,73.7026,VALID,312.449,VALID,29.3163,VALID,114,VALID,2.77187,
2011-02-28, 14:56:04,VALID,1000.29,VALID,0,VALID,75.4725,VALID,301.588,VALID,29.2968,VALID,114,VALID,1.73555,
2011-02-28, 14:57:04,VALID,1000.25,VALID,0,VALID,74.702,VALID,300.08,VALID,29.3163,VALID,124,VALID,2.45703,
2011-02-28, 14:58:04,VALID,1000.23,VALID,0,VALID,74.9156,VALID,308.225,VALID,29.2383,VALID,115,VALID,2.5457,
2011-02-28, 14:59:04,VALID,1000.2,VALID,0,VALID,75.8616,VALID,375.703,VALID,29.2166,VALID,138,VALID,2.87266,
2011-02-28, 15:00:04,VALID,1000.19,VALID,0,VALID,75.1216,VALID,369.368,VALID,29.1993,VALID,119,VALID,2.21836,
2011-02-28, 15:01:04,VALID,1000.18,VALID,0,VALID,74.0307,VALID,564.058,VALID,29.2383,VALID,125,VALID,3.25898,
2011-02-28, 15:02:04,VALID,1000.15,VALID,0,VALID,73.7179,VALID,663.213,VALID,29.377,VALID,78,VALID,1.42227,
2011-02-28, 15:03:04,VALID,1000.09,VALID,0,VALID,75.2971,VALID,448.008,VALID,29.5503,VALID,127,VALID,1.72773,
2011-02-28, 15:04:04,VALID,1000.11,VALID,0,VALID,72.894,VALID,455.852,VALID,29.5698,VALID,118,VALID,3.58828,
2011-02-28, 15:05:04,VALID,1000.1,VALID,0,VALID,74.2672,VALID,534.794,VALID,29.5893,VALID,96,VALID,1.71133,
2011-02-28, 15:06:04,VALID,1000.09,VALID,0,VALID,73.1533,VALID,586.785,VALID,29.7258,VALID,119,VALID,2.31016,
2011-02-28, 15:07:04,VALID,1000.05,VALID,0,VALID,72.1234,VALID,605.691,VALID,29.9208,VALID,75,VALID,1.46367,
2011-02-28, 15:08:04,VALID,1000.06,VALID,0,VALID,70.5137,VALID,614.44,VALID,29.9403,VALID,104,VALID,2.77539,
2011-02-28, 15:09:04,VALID,1000.03,VALID,0,VALID,71.9785,VALID,663.313,VALID,29.86,VALID,31,VALID,1.22852,
2011-02-28, 15:10:04,VALID,1000,VALID,0,VALID,70.8418,VALID,697.505,VALID,30.0573,VALID,56,VALID,0.828906,
2011-02-28, 15:11:04,VALID,1000.03,VALID,0,VALID,72.8787,VALID,730.59,VALID,30.2913,VALID,105,VALID,1.12578,
2011-02-28, 15:12:04,VALID,999.983,VALID,0,VALID,69.3313,VALID,830.147,VALID,30.4669,VALID,96,VALID,1.28203,
2011-02-28, 15:13:04,VALID,999.983,VALID,0,VALID,67.7521,VALID,811.442,VALID,30.5598,VALID,134,VALID,1.56211,
2011-02-28, 15:14:04,VALID,999.964,VALID,0,VALID,68.6218,VALID,407.883,VALID,30.7181,VALID,199,VALID,0.586719,
2011-02-28, 15:15:04,VALID,999.922,VALID,0,VALID,68.0725,VALID,694.689,VALID,30.9132,VALID,98,VALID,1.47539,
2011-02-28, 15:16:04,VALID,999.909,VALID,0,VALID,66.1119,VALID,548.269,VALID,30.9327,VALID,17,VALID,2.34063,
2011-02-28, 15:17:04,VALID,999.879,VALID,0,VALID,68.1869,VALID,691.571,VALID,30.9132,VALID,36,VALID,1.14883,
2011-02-28, 15:18:04,VALID,999.866,VALID,0,VALID,67.2638,VALID,653.156,VALID,30.9912,VALID,124,VALID,2.05,
2011-02-28, 15:19:04,VALID,999.877,VALID,0,VALID,66.9205,VALID,784.994,VALID,30.7767,VALID,110,VALID,2.10352,
2011-02-28, 15:20:04,VALID,999.808,VALID,0,VALID,68.042,VALID,857.902,VALID,30.8547,VALID,61,VALID,0.517969,
2011-02-28, 15:21:04,VALID,999.879,VALID,0,VALID,67.1952,VALID,851.768,VALID,31.0326,VALID,24,VALID,1.16406,
2011-02-28, 15:22:04,VALID,999.83,VALID,0,VALID,67.6911,VALID,841.611,VALID,30.9717,VALID,85,VALID,1.84687,
2011-02-28, 15:23:04,VALID,999.849,VALID,0,VALID,66.4781,VALID,420.856,VALID,31.1301,VALID,41,VALID,0.876172,
2011-02-28, 15:24:04,VALID,999.838,VALID,0,VALID,65.0133,VALID,635.759,VALID,31.0497,VALID,122,VALID,2.025,
2011-02-28, 15:25:04,VALID,999.82,VALID,0,VALID,67.1265,VALID,698.108,VALID,31.0131,VALID,68,VALID,0.882031,
2011-02-28, 15:26:04,VALID,999.876,VALID,0,VALID,67.5003,VALID,376.105,VALID,31.0326,VALID,120,VALID,2.78203,
2011-02-28, 15:27:04,VALID,999.804,VALID,0,VALID,68.3929,VALID,487.831,VALID,30.9351,VALID,144,VALID,1.45469,
2011-02-28, 15:28:04,VALID,999.855,VALID,0,VALID,66.1195,VALID,348.752,VALID,30.9522,VALID,105,VALID,1.85508,
2011-02-28, 15:29:04,VALID,999.888,VALID,0,VALID,66.8443,VALID,502.211,VALID,30.9936,VALID,62,VALID,1.18828,
2011-02-28, 15:30:05,VALID,999.877,VALID,0,VALID,66.3636,VALID,748.792,VALID,31.0302,VALID,147,VALID,1.46836,
2011-02-28, 15:31:05,VALID,999.937,VALID,0,VALID,68.4463,VALID,783.888,VALID,31.1863,VALID,76,VALID,0.907031,
2011-02-28, 15:32:05,VALID,999.933,VALID,0,VALID,62.9306,VALID,717.014,VALID,31.3229,VALID,2,VALID,1.01328,
2011-02-28, 15:33:05,VALID,999.991,VALID,0,VALID,63.4418,VALID,612.026,VALID,31.3838,VALID,56,VALID,2.35547,
2011-02-28, 15:34:05,VALID,999.945,VALID,0,VALID,64.0368,VALID,500.803,VALID,31.3643,VALID,60,VALID,1.2293,
2011-02-28, 15:35:05,VALID,999.907,VALID,0,VALID,64.3572,VALID,453.137,VALID,31.4204,VALID,212,VALID,0.690234,
2011-02-28, 15:36:05,VALID,999.999,VALID,0,VALID,64.9828,VALID,384.05,VALID,31.3838,VALID,123,VALID,1.67813,
2011-02-28, 15:37:05,VALID,999.926,VALID,0,VALID,63.6706,VALID,333.567,VALID,31.0521,VALID,140,VALID,2.79063,
2011-02-28, 15:38:05,VALID,999.954,VALID,0,VALID,65.2117,VALID,322.003,VALID,30.818,VALID,103,VALID,2.92188,
2011-02-28, 15:39:05,VALID,999.934,VALID,0,VALID,66.8595,VALID,350.965,VALID,30.701,VALID,85,VALID,1.06797,
2011-02-28, 15:40:05,VALID,999.967,VALID,0,VALID,67.1036,VALID,360.518,VALID,30.6229,VALID,134,VALID,2.1418,
2011-02-28, 15:41:05,VALID,999.988,VALID,0,VALID,68.2098,VALID,354.987,VALID,30.5839,VALID,104,VALID,2.32305,
2011-02-28, 15:42:05,VALID,999.946,VALID,0,VALID,66.3865,VALID,336.584,VALID,30.6034,VALID,124,VALID,0.818359,
2011-02-28, 15:43:05,VALID,1000.03,VALID,0,VALID,65.5626,VALID,355.691,VALID,30.6424,VALID,85,VALID,1.94062,
2011-02-28, 15:44:05,VALID,999.999,VALID,0,VALID,65.8449,VALID,365.647,VALID,30.6253,VALID,63,VALID,1.15313,
2011-02-28, 15:45:05,VALID,999.985,VALID,0,VALID,68.1335,VALID,324.919,VALID,30.6058,VALID,73,VALID,0.417969,
2011-02-28, 15:46:05,VALID,999.962,VALID,0,VALID,67.3783,VALID,320.595,VALID,30.7033,VALID,92,VALID,0.941016,
2011-02-28, 15:47:05,VALID,999.971,VALID,0,VALID,67.5461,VALID,329.143,VALID,30.6448,VALID,157,VALID,1.34063,
2011-02-28, 15:48:05,VALID,999.957,VALID,0,VALID,68.4845,VALID,333.869,VALID,30.5644,VALID,133,VALID,1.60234,
2011-02-28, 15:49:05,VALID,999.958,VALID,0,VALID,69.2168,VALID,349.255,VALID,30.6058,VALID,65,VALID,1.63945,
2011-02-28, 15:50:05,VALID,999.944,VALID,0,VALID,67.9962,VALID,387.167,VALID,30.5667,VALID,128,VALID,1.48906,
2011-02-28, 15:51:05,VALID,999.942,VALID,0,VALID,69.0108,VALID,429.203,VALID,30.4864,VALID,124,VALID,1.51602,
2011-02-28, 15:52:05,VALID,999.925,VALID,0,VALID,71.1622,VALID,448.712,VALID,30.4279,VALID,115,VALID,1.35625,
2011-02-28, 15:53:05,VALID,999.927,VALID,0,VALID,70.1628,VALID,498.189,VALID,30.3132,VALID,132,VALID,2.40625,
2011-02-28, 15:54:05,VALID,999.913,VALID,0,VALID,70.8647,VALID,524.536,VALID,30.1571,VALID,120,VALID,2.36016,
2011-02-28, 15:55:05,VALID,999.885,VALID,0,VALID,71.3682,VALID,492.457,VALID,30.1158,VALID,137,VALID,2.34883,
2011-02-28, 15:56:05,VALID,999.963,VALID,0,VALID,71.5208,VALID,348.752,VALID,30.0768,VALID,108,VALID,2.17773,
2011-02-28, 15:57:05,VALID,999.909,VALID,0,VALID,72.1387,VALID,273.431,VALID,30.0378,VALID,99,VALID,1.85234,
2011-02-28, 15:58:05,VALID,999.914,VALID,0,VALID,72.7032,VALID,214.601,VALID,30.0963,VALID,156,VALID,1.30078,
2011-02-28, 15:59:05,VALID,999.9,VALID,0,VALID,72.7109,VALID,190.768,VALID,30.1548,VALID,113,VALID,1.04219,
2011-02-28, 16:00:05,VALID,999.887,VALID,0,VALID,72.1845,VALID,182.924,VALID,30.0963,VALID,43,VALID,0.600781,
2011-02-28, 16:01:05,VALID,999.896,VALID,0,VALID,72.6575,VALID,184.634,VALID,30.1376,VALID,134,VALID,1.44883,
2011-02-28, 16:02:05,VALID,999.899,VALID,0,VALID,73.3288,VALID,185.036,VALID,29.9988,VALID,113,VALID,1.35234,
2011-02-28, 16:03:05,VALID,999.896,VALID,0,VALID,73.0465,VALID,186.142,VALID,29.9013,VALID,133,VALID,1.22227,
2011-02-28, 16:04:05,VALID,999.93,VALID,0,VALID,74.2672,VALID,186.343,VALID,29.8623,VALID,115,VALID,1.67695,
2011-02-28, 16:05:05,VALID,999.92,VALID,0,VALID,73.2067,VALID,184.734,VALID,29.7648,VALID,105,VALID,2.53633,
2011-02-28, 16:06:05,VALID,999.933,VALID,0,VALID,72.9016,VALID,181.516,VALID,29.6673,VALID,99,VALID,2.51914,
2011-02-28, 16:07:05,VALID,999.929,VALID,0,VALID,72.4973,VALID,183.427,VALID,29.5893,VALID,117,VALID,1.60977,
2011-02-28, 16:08:05,VALID,999.974,VALID,0,VALID,74.3129,VALID,185.438,VALID,29.5698,VALID,113,VALID,2.1168,
2011-02-28, 16:09:05,VALID,999.984,VALID,0,VALID,73.3364,VALID,189.259,VALID,29.5503,VALID,111,VALID,2.26602,
2011-02-28, 16:10:05,VALID,999.998,VALID,0,VALID,73.8476,VALID,188.455,VALID,29.4918,VALID,139,VALID,2.42031,
2011-02-28, 16:11:05,VALID,1000.03,VALID,0,VALID,75.0606,VALID,177.192,VALID,29.4918,VALID,107,VALID,1.15937,
2011-02-28, 16:12:05,VALID,1000.02,VALID,0,VALID,76.2507,VALID,170.454,VALID,29.5113,VALID,103,VALID,0.923047,
2011-02-28, 16:13:05,VALID,1000.05,VALID,0,VALID,75.4344,VALID,176.086,VALID,29.5698,VALID,89,VALID,1.20625,
2011-02-28, 16:14:05,VALID,1000.07,VALID,0,VALID,75.1597,VALID,185.74,VALID,29.5698,VALID,107,VALID,2.32383,
2011-02-28, 16:15:05,VALID,1000.05,VALID,0,VALID,75.9379,VALID,195.595,VALID,29.548,VALID,108,VALID,1.08359,
2011-02-28, 16:16:05,VALID,1000.07,VALID,0,VALID,74.9766,VALID,203.64,VALID,29.548,VALID,127,VALID,2.03516,
2011-02-28, 16:17:05,VALID,1000.06,VALID,0,VALID,73.9925,VALID,206.858,VALID,29.4918,VALID,119,VALID,2.78437,
2011-02-28, 16:18:05,VALID,1000.04,VALID,0,VALID,75.7472,VALID,205.249,VALID,29.5113,VALID,133,VALID,1.54648,
2011-02-28, 16:19:05,VALID,1000.03,VALID,0,VALID,75.3733,VALID,196.601,VALID,29.509,VALID,113,VALID,1.50391,
2011-02-28, 16:20:05,VALID,1000.04,VALID,0,VALID,74.1527,VALID,189.461,VALID,29.4895,VALID,114,VALID,1.66797,
2011-02-28, 16:21:05,VALID,1000.02,VALID,0,VALID,73.3212,VALID,189.461,VALID,29.4505,VALID,100,VALID,2.13633,
2011-02-28, 16:22:05,VALID,1000.03,VALID,0,VALID,74.9003,VALID,187.65,VALID,29.392,VALID,113,VALID,2.20234,
2011-02-28, 16:23:05,VALID,1000.01,VALID,0,VALID,75.4267,VALID,184.231,VALID,29.431,VALID,35,VALID,0.783984,
2011-02-28, 16:24:05,VALID,1000.01,VALID,0,VALID,76.5253,VALID,182.019,VALID,29.509,VALID,111,VALID,0.316797,
2011-02-28, 16:25:05,VALID,999.964,VALID,0,VALID,75.5488,VALID,180.51,VALID,29.548,VALID,74,VALID,0.972266,
2011-02-28, 16:26:05,VALID,999.938,VALID,0,VALID,75.442,VALID,177.494,VALID,29.5285,VALID,120,VALID,0.817969,
2011-02-28, 16:27:05,VALID,999.958,VALID,0,VALID,75.709,VALID,175.482,VALID,29.5503,VALID,92,VALID,1.04297,
2011-02-28, 16:28:05,VALID,999.924,VALID,0,VALID,75.2971,VALID,172.063,VALID,29.509,VALID,107,VALID,1.94961,
2011-02-28, 16:29:05,VALID,999.927,VALID,0,VALID,74.9309,VALID,167.337,VALID,29.4505,VALID,90,VALID,1.3918,
2011-02-28, 16:30:05,VALID,999.925,VALID,0,VALID,76.0294,VALID,161.705,VALID,29.4115,VALID,110,VALID,1.41406,
2011-02-28, 16:31:05,VALID,999.927,VALID,0,VALID,76.4795,VALID,155.37,VALID,29.4505,VALID,125,VALID,1.69258,
2011-02-28, 16:32:05,VALID,999.941,VALID,0,VALID,76.0828,VALID,148.632,VALID,29.3725,VALID,120,VALID,1.85508,
2011-02-28, 16:33:05,VALID,999.936,VALID,0,VALID,78.0511,VALID,142.498,VALID,29.3508,VALID,51,VALID,0.908594,
2011-02-28, 16:34:05,VALID,999.941,VALID,0,VALID,76.3041,VALID,136.665,VALID,29.3725,VALID,69,VALID,1.60039,
2011-02-28, 16:35:05,VALID,999.925,VALID,0,VALID,76.3193,VALID,131.335,VALID,29.3943,VALID,55,VALID,0.728516,
2011-02-28, 16:36:05,VALID,999.922,VALID,0,VALID,77.7535,VALID,126.408,VALID,29.4138,VALID,76,VALID,0.686719,
2011-02-28, 16:37:05,VALID,999.898,VALID,0,VALID,76.8533,VALID,121.782,VALID,29.4138,VALID,138,VALID,0.848437,
2011-02-28, 16:38:05,VALID,999.882,VALID,0,VALID,76.2583,VALID,117.458,VALID,29.3553,VALID,126,VALID,1.50586,
2011-02-28, 16:39:05,VALID,999.874,VALID,0,VALID,76.9601,VALID,113.033,VALID,29.3163,VALID,124,VALID,1.38359,
2011-02-28, 16:40:05,VALID,999.914,VALID,0,VALID,77.4331,VALID,108.407,VALID,29.2578,VALID,117,VALID,1.21367,
2011-02-28, 16:41:05,VALID,999.93,VALID,0,VALID,76.9296,VALID,103.379,VALID,29.2188,VALID,89,VALID,0.937891,
2011-02-28, 16:42:05,VALID,999.959,VALID,0,VALID,78.5546,VALID,98.0489,VALID,29.2383,VALID,102,VALID,0.509375,
2011-02-28, 16:43:05,VALID,999.971,VALID,0,VALID,78.4096,VALID,92.9202,VALID,29.2383,VALID,129,VALID,0.474219,
2011-02-28, 16:44:05,VALID,999.96,VALID,0,VALID,76.7847,VALID,88.4954,VALID,29.2166,VALID,63,VALID,1.12188,
2011-02-28, 16:45:05,VALID,1000,VALID,0,VALID,76.2125,VALID,85.0762,VALID,29.1993,VALID,32,VALID,1.78008,
2011-02-28, 16:46:05,VALID,999.991,VALID,0,VALID,76.8839,VALID,82.7633,VALID,29.1603,VALID,19,VALID,1.50586,
2011-02-28, 16:47:05,VALID,1000.04,VALID,0,VALID,78.0968,VALID,80.9532,VALID,29.1213,VALID,60,VALID,0.482031,
2011-02-28, 16:48:05,VALID,1000.03,VALID,0,VALID,77.3111,VALID,79.7464,VALID,29.1213,VALID,31,VALID,1.35625,
2011-02-28, 16:49:05,VALID,1000.05,VALID,0,VALID,77.5781,VALID,78.6402,VALID,29.0411,VALID,95,VALID,0.872266,
2011-02-28, 16:50:05,VALID,1000.06,VALID,0,VALID,78.7758,VALID,77.6346,VALID,29.0216,VALID,102,VALID,0.642969,
2011-02-28, 16:51:05,VALID,1000.05,VALID,0,VALID,78.5393,VALID,76.7295,VALID,29.0238,VALID,12,VALID,1.06484,
2011-02-28, 16:52:05,VALID,1000.09,VALID,0,VALID,79.1115,VALID,76.2267,VALID,28.9826,VALID,86,VALID,1.20273,
2011-02-28, 16:53:05,VALID,1000.07,VALID,0,VALID,79.5769,VALID,76.0256,VALID,29.0043,VALID,97,VALID,0.973437,
2011-02-28, 16:54:05,VALID,1000.11,VALID,0,VALID,78.135,VALID,76.4278,VALID,28.9046,VALID,111,VALID,1.30391,
2011-02-28, 16:55:05,VALID,1000.13,VALID,0,VALID,77.9366,VALID,76.9307,VALID,28.8851,VALID,146,VALID,1.42422,
2011-02-28, 16:56:05,VALID,1000.16,VALID,0,VALID,79.6303,VALID,77.534,VALID,28.9263,VALID,49,VALID,1.02656,
2011-02-28, 16:57:05,VALID,1000.18,VALID,0,VALID,78.9513,VALID,78.0368,VALID,28.9046,VALID,57,VALID,0.858984,
2011-02-28, 16:58:05,VALID,1000.18,VALID,0,VALID,78.6919,VALID,78.3385,VALID,28.8656,VALID,75,VALID,0.909375,
2011-02-28, 16:59:05,VALID,1000.21,VALID,0,VALID,77.7383,VALID,78.238,VALID,28.8873,VALID,72,VALID,1.36133,
2011-02-28, 17:00:05,VALID,1000.22,VALID,0,VALID,78.936,VALID,78.0368,VALID,28.8656,VALID,31,VALID,0.864062,
2011-02-28, 17:01:05,VALID,1000.26,VALID,0,VALID,78.3333,VALID,77.8357,VALID,28.8873,VALID,48,VALID,1.11523,
2011-02-28, 17:02:05,VALID,1000.27,VALID,0,VALID,78.4859,VALID,77.4335,VALID,28.8851,VALID,80,VALID,1.30977,
2011-02-28, 17:03:05,VALID,1000.31,VALID,0,VALID,79.0886,VALID,77.0312,VALID,28.8656,VALID,94,VALID,0.851953,
2011-02-28, 17:04:05,VALID,1000.34,VALID,0,VALID,79.8057,VALID,76.0256,VALID,28.8461,VALID,108,VALID,0.498047,
2011-02-28, 17:05:05,VALID,1000.36,VALID,0,VALID,79.5082,VALID,74.7183,VALID,28.8483,VALID,54,VALID,1.13125,
2011-02-28, 17:06:05,VALID,1000.42,VALID,0,VALID,78.6843,VALID,73.4109,VALID,28.8072,VALID,99,VALID,1.67266,
2011-02-28, 17:07:05,VALID,1000.39,VALID,0,VALID,78.3333,VALID,72.3048,VALID,28.7898,VALID,88,VALID,1.4082,
2011-02-28, 17:08:05,VALID,1000.42,VALID,0,VALID,79.3632,VALID,71.8019,VALID,28.7682,VALID,93,VALID,0.691406,
2011-02-28, 17:09:05,VALID,1000.43,VALID,0,VALID,79.0962,VALID,71.5003,VALID,28.7487,VALID,81,VALID,1.81602,
2011-02-28, 17:10:05,VALID,1000.46,VALID,0,VALID,79.4243,VALID,71.7014,VALID,28.7314,VALID,78,VALID,1.09414,
2011-02-28, 17:11:05,VALID,1000.45,VALID,0,VALID,79.8973,VALID,72.1036,VALID,28.7119,VALID,99,VALID,0.991016,
2011-02-28, 17:12:05,VALID,1000.46,VALID,0,VALID,80.9348,VALID,72.2042,VALID,28.7097,VALID,13,VALID,0.591797,
2011-02-28, 17:13:05,VALID,1000.43,VALID,0,VALID,81.0187,VALID,72.1036,VALID,28.7292,VALID,20,VALID,0.678906,
2011-02-28, 17:14:05,VALID,1000.44,VALID,0,VALID,80.7441,VALID,71.8019,VALID,28.7097,VALID,93,VALID,0.766016,
2011-02-28, 17:15:05,VALID,1000.44,VALID,0,VALID,81.0645,VALID,71.1986,VALID,28.7097,VALID,352,VALID,0.367188,
2011-02-28, 17:16:05,VALID,1000.47,VALID,0,VALID,80.9729,VALID,70.3941,VALID,28.7509,VALID,21,VALID,0.988672,
2011-02-28, 17:17:05,VALID,1000.47,VALID,0,VALID,80.416,VALID,69.2879,VALID,28.7097,VALID,77,VALID,1.07773,
2011-02-28, 17:18:05,VALID,1000.49,VALID,0,VALID,81.5146,VALID,68.3828,VALID,28.6902,VALID,93,VALID,0.945703,
2011-02-28, 17:19:05,VALID,1000.52,VALID,0,VALID,81.2628,VALID,67.5783,VALID,28.6512,VALID,28,VALID,0.918359,
2011-02-28, 17:20:05,VALID,1000.52,VALID,0,VALID,82.0181,VALID,66.7738,VALID,28.6122,VALID,59,VALID,1.6168,
2011-02-28, 17:21:05,VALID,1000.56,VALID,0,VALID,82.7199,VALID,65.8687,VALID,28.6122,VALID,54,VALID,0.779688,
2011-02-28, 17:22:05,VALID,1000.56,VALID,0,VALID,81.3391,VALID,64.9637,VALID,28.5927,VALID,47,VALID,0.43125,
2011-02-28, 17:23:05,VALID,1000.58,VALID,0,VALID,82.3538,VALID,63.8575,VALID,28.5732,VALID,87,VALID,1.4375,
2011-02-28, 17:24:05,VALID,1000.6,VALID,0,VALID,81.5222,VALID,62.4496,VALID,28.5342,VALID,46,VALID,1.46992,
2011-02-28, 17:25:05,VALID,1000.61,VALID,0,VALID,81.8808,VALID,61.2428,VALID,28.5148,VALID,79,VALID,1.63047,
2011-02-28, 17:26:05,VALID,1000.62,VALID,0,VALID,82.0028,VALID,59.9355,VALID,28.4931,VALID,21,VALID,1.29023,
2011-02-28, 17:27:05,VALID,1000.61,VALID,0,VALID,82.5063,VALID,58.5276,VALID,28.4563,VALID,28,VALID,1.64375,
2011-02-28, 17:28:05,VALID,1000.61,VALID,0,VALID,82.7734,VALID,57.1198,VALID,28.4194,VALID,38,VALID,1.01992,
2011-02-28, 17:29:05,VALID,1000.64,VALID,0,VALID,82.8573,VALID,55.7119,VALID,28.4389,VALID,37,VALID,0.651563,
2011-02-28, 17:30:05,VALID,1000.64,VALID,0,VALID,83.0632,VALID,54.1029,VALID,28.4389,VALID,32,VALID,0.568359,
2011-02-28, 17:31:05,VALID,1000.65,VALID,0,VALID,83.7804,VALID,52.3933,VALID,28.4389,VALID,78,VALID,0.462891,
2011-02-28, 17:32:05,VALID,1000.68,VALID,0,VALID,83.315,VALID,50.7843,VALID,28.4194,VALID,53,VALID,1.00625,
2011-02-28, 17:33:05,VALID,1000.68,VALID,0,VALID,83.3074,VALID,49.2758,VALID,28.4,VALID,10,VALID,1.18398,
2011-02-28, 17:34:05,VALID,1000.71,VALID,0,VALID,82.7276,VALID,47.5663,VALID,28.3415,VALID,32,VALID,1.64414,
2011-02-28, 17:35:05,VALID,1000.71,VALID,0,VALID,84.1542,VALID,45.9573,VALID,28.3415,VALID,22,VALID,0.894531,
2011-02-28, 17:36:05,VALID,1000.75,VALID,0,VALID,83.9635,VALID,44.2477,VALID,28.3003,VALID,6,VALID,0.398438,
2011-02-28, 17:37:05,VALID,1000.77,VALID,0,VALID,84.3983,VALID,42.5381,VALID,28.3003,VALID,70,VALID,0.471094,
2011-02-28, 17:38:05,VALID,1000.76,VALID,0,VALID,84.2762,VALID,40.9291,VALID,28.322,VALID,42,VALID,0.976172,
2011-02-28, 17:39:05,VALID,1000.79,VALID,0,VALID,84.6501,VALID,39.5212,VALID,28.322,VALID,8,VALID,0.841016,
2011-02-28, 17:40:05,VALID,1000.8,VALID,0,VALID,85.2985,VALID,37.9122,VALID,28.322,VALID,10,VALID,0.238281,
2011-02-28, 17:41:05,VALID,1000.85,VALID,0,VALID,84.7187,VALID,36.5043,VALID,28.2614,VALID,59,VALID,0.527734,
2011-02-28, 17:42:05,VALID,1000.83,VALID,0,VALID,85.1841,VALID,34.9959,VALID,28.2614,VALID,59,VALID,0.196484,
2011-02-28, 17:43:05,VALID,1000.82,VALID,0,VALID,84.528,VALID,33.3869,VALID,28.2635,VALID,59,VALID,0.390234,
2011-02-28, 17:44:05,VALID,1000.82,VALID,0,VALID,84.3678,VALID,31.979,VALID,28.2635,VALID,31,VALID,0.646875,
2011-02-28, 17:45:05,VALID,1000.88,VALID,0,VALID,84.6119,VALID,30.37,VALID,28.244,VALID,35,VALID,0.463281,
2011-02-28, 17:46:05,VALID,1000.91,VALID,0,VALID,85.0925,VALID,28.9621,VALID,28.244,VALID,35,VALID,0.462891,
2011-02-28, 17:47:05,VALID,1000.9,VALID,0,VALID,85.2604,VALID,27.7554,VALID,28.2245,VALID,357,VALID,1.10156,
2011-02-28, 17:48:05,VALID,1000.92,VALID,0,VALID,84.8026,VALID,26.7497,VALID,28.1855,VALID,32,VALID,1.02695,